[[{"header":{"parameterUnit":"m.s-1","parameterCategory":1,"la1":30.2991,"la2":30.254,"lo1":-89.0895,"lo2":-89.0444,"dy":0.0017,"dx":0.0017,"nx":28,"ny":28,"refTime":"2025-07-18T09:00:00:Z","depth":0,"parameterNumber":2,"parameterNumberName":"U-component_of_WINDS"},"data":[0,0,0,0,0,0,0,0,0,0,0,0,0,0,0,0,0,0,0,0,0,0,0,0,0,0,0,0,0,0,0,0,0,0,0,0,0,0,0,0,0,0,0,0,0,0,0,0,0,0,0,0,0,0,0,0,0,0,1.7422,1.7422,0,1.7434,1.7434,1.7434,1.7376,1.7374,1.7372,1.7371,1.7383,1.7385,1.7387,0,0,0,0,0,0,0,0,0,0,0,0,0,1.7346,1.7348,1.7422,1.7422,1.7422,1.7434,1.7434,1.7434,1.7376,1.7374,1.7372,1.737,1.7383,1.7385,1.7387,0,0,0,0,0,0,0,0,0,0,0,0,0,1.7371,1.7348,1.7422,1.7394,1.7392,1.7434,1.7434,1.7434,1.7376,1.7374,1.7371,1.7369,1.7382,1.7385,1.7387,1.7457,0,0,1.7396,1.7398,0,0,0,0,0,0,0,0,1.7369,1.7374,1.7398,1.7396,1.7394,1.7401,1.7412,1.7442,1.7377,1.7382,1.737,1.7367,1.7391,1.7393,1.7401,1.7457,1.7458,1.7397,1.7398,1.74,1.74,0,0,0,0,0,0,0,1.7368,1.7373,1.7427,1.7399,1.7396,1.7381,1.7382,1.7418,1.7401,1.7382,1.7377,1.738,1.7389,1.7398,1.7401,1.7458,1.7397,1.7399,1.7401,1.7402,1.7569,1.7571,0,0,0,0,0,0,1.737,1.7372,1.7426,1.7427,1.7375,1.7384,1.7385,1.7401,1.74,1.7398,1.7382,1.7377,1.7395,1.7398,1.7401,1.748,1.74,1.7402,1.7404,1.7566,1.7569,1.7572,0,0,0,0,0,0,1.7368,1.7375,1.7426,1.7398,1.7403,1.7388,1.7407,1.7403,1.7411,1.74,1.7397,1.7394,1.7393,1.7397,1.7443,1.748,1.7404,1.7406,1.7563,1.7567,1.7571,1.764,0,0,0,0,0,0,1.7367,1.7375,1.7402,1.7399,1.7405,1.7468,1.7409,1.7405,1.7417,1.741,1.7411,1.7409,1.7391,1.7439,1.7446,1.7482,1.7408,1.756,1.7565,1.757,1.7634,1.7645,1.7655,0,0,0,0,0,1.7364,1.7421,1.7403,1.741,1.7438,1.747,1.7473,1.7452,1.742,1.7446,1.7438,1.7409,1.7475,1.7444,1.7451,1.7489,1.7557,1.7563,1.7569,1.7629,1.7643,1.7655,0,0,0,0,0,0,1.7429,1.742,1.7401,1.7459,1.7465,1.746,1.7492,1.7468,1.7484,1.7477,1.745,1.745,1.75,1.7499,1.7465,1.7555,1.751,1.7518,1.7553,1.7567,1.7577,1.7576,1.7411,0,0,0,0,0,1.745,1.7477,1.7468,1.752,1.7524,1.7508,1.7521,1.7504,1.751,1.7512,1.7508,1.7515,1.7537,1.7552,1.7572,1.7634,1.7632,1.7663,1.7674,1.7683,1.769,1.772,1.7733,1.7592,1.7592,1.7592,0,0,1.7494,1.7492,1.7511,1.7533,1.7536,1.7563,1.7511,1.7543,1.7562,1.7517,1.7559,1.7557,1.7562,1.7616,1.7639,1.7617,1.7728,1.7691,1.7698,1.77,1.7728,1.7741,1.7753,1.7596,1.7596,1.7595,0,0,1.7587,1.759,1.7632,1.7636,1.7641,1.7629,1.764,1.7638,1.7634,1.7676,1.7642,1.7665,1.7704,1.7709,1.7716,1.781,1.7782,1.7817,1.7872,1.7902,1.7913,1.7923,1.7954,1.7966,1.7824,1.7824,1.7824,0,1.7641,1.7681,1.7657,1.769,1.77,1.766,1.7702,1.7707,1.7719,1.7726,1.7701,1.7747,1.7748,1.7801,1.7824,1.7832,1.7842,1.7816,1.7914,1.7923,1.7932,1.7961,1.7974,1.7828,1.7828,1.7827,1.7827,0,1.7745,1.7774,1.7807,1.7818,1.7832,1.787,1.7851,1.7868,1.7849,1.784,1.7882,1.7882,1.79,1.7912,1.7894,1.7962,1.7947,1.7919,1.7873,1.795,1.7977,1.7988,1.7834,1.7832,1.7831,1.783,0,0,1.788,1.7876,1.7889,1.7892,1.7894,1.7915,1.7951,1.7968,1.7982,1.7991,1.8019,1.8052,1.8025,1.8034,1.8016,1.8043,1.8114,1.8011,1.801,1.8028,1.8186,1.8207,1.822,1.8097,1.8099,1.8101,1.8185,0,1.7969,1.8029,1.8007,1.8068,1.8093,1.8055,1.8085,1.8089,1.8082,1.8101,1.8093,1.8116,1.8079,1.8084,1.8109,1.8101,1.8146,1.8095,1.8121,1.8122,1.8119,1.8235,1.8257,1.8337,1.8196,1.8198,1.8199,0,1.8081,1.8094,1.8157,1.8153,1.8162,1.819,1.8203,1.8223,1.8226,1.8219,1.8228,1.8204,1.8238,1.8193,1.8238,1.8204,1.8213,1.8211,1.8214,1.8214,1.8164,1.8236,1.8362,1.8373,1.8216,1.8215,1.8213,0,1.817,1.8203,1.8244,1.8249,1.8246,1.8266,1.8265,1.8266,1.8277,1.8289,1.8295,1.8311,1.8319,1.8332,1.8313,1.8283,1.836,1.8314,1.8353,1.8354,1.837,1.8369,1.8497,1.838,1.8379,1.8379,1.8379,0,1.8271,1.8311,1.8284,1.8309,1.8351,1.8327,1.8369,1.8365,1.8366,1.8389,1.8358,1.838,1.8354,1.8374,1.8359,1.8397,1.8402,1.8396,1.8391,1.8398,1.8398,1.8403,1.8396,1.8382,1.8382,1.8381,1.838,0,1.8377,1.8361,1.8403,1.8396,1.8395,1.8426,1.842,1.8443,1.8433,1.8462,1.8468,1.8452,1.8473,1.8456,1.8477,1.8467,1.8517,1.8506,1.8516,1.8512,1.8551,1.8547,1.8685,1.8701,1.8575,1.8576,1.8578,0,1.8441,1.847,1.8466,1.8479,1.8481,1.8502,1.8513,1.8489,1.8502,1.8507,1.8529,1.8547,1.8561,1.8597,1.8587,1.8603,1.859,1.8637,1.8592,1.8597,1.8588,1.8586,1.8588,1.8646,1.8647,1.8649,1.865,0,1.8557,1.8547,1.8563,1.8577,1.859,1.86,1.8607,1.8619,1.8595,1.861,1.8631,1.8642,1.8663,1.8681,1.8693,1.8692,1.8667,1.8664,1.8673,1.8679,1.8683,1.8679,1.8539,1.8661,1.8659,1.8659,1.8658,1.8658,1.8642,1.8665,1.8665,1.8684,1.8687,1.8694,1.8714,1.8706,1.8723,1.8738,1.8723,1.8748,1.875,1.8763,1.8766,1.8785,1.8765,1.8779,1.8782,1.8786,1.879,1.8682,1.8787,1.8787,1.8786,1.8786,1.8786,0,1.8754,1.8752,1.8769,1.878,1.8794,1.8769,1.8775,1.8789,1.8811,1.8814,1.8828,1.8851,1.8869,1.886,1.8875,1.8892,1.888,1.8896,1.8894,1.8894,1.8808,1.8798,1.8905,1.8905,1.8905,1.8905,1.8905,1.8905,1.8814,1.8851,1.8841,1.8879,1.8876,1.89,1.8905,1.8911,1.8914,1.8941,1.8955,1.8949,1.8947,1.8962,1.8976,1.8973,1.8979,1.8999,1.8992,1.8912,1.89,1.8889,1.8878,1.9001,1.9001,1.9075,1.9076,1.9077]},{"header":{"parameterUnit":"m.s-1","parameterCategory":1,"la1":30.2991,"la2":30.254,"lo1":-89.0895,"lo2":-89.0444,"dy":0.0017,"dx":0.0017,"nx":28,"ny":28,"refTime":"2025-07-18T09:00:00:Z","depth":0,"parameterNumber":3,"parameterNumberName":"V-component_of_WINDS"},"data":[0,0,0,0,0,0,0,0,0,0,0,0,0,0,0,0,0,0,0,0,0,0,0,0,0,0,0,0,0,0,0,0,0,0,0,0,0,0,0,0,0,0,0,0,0,0,0,0,0,0,0,0,0,0,0,0,0,0,6.6654,6.6657,0,6.6912,6.6915,6.6918,6.6946,6.6943,6.694,6.6938,6.7196,6.7205,6.7214,0,0,0,0,0,0,0,0,0,0,0,0,0,6.6178,6.6187,6.6654,6.6657,6.666,6.6911,6.6915,6.6918,6.6946,6.6943,6.694,6.6937,6.7193,6.7203,6.7215,0,0,0,0,0,0,0,0,0,0,0,0,0,6.6405,6.619,6.6653,6.6704,6.6712,6.6911,6.6915,6.6919,6.6947,6.6943,6.6939,6.6935,6.7189,6.7202,6.7216,6.738,0,0,6.7259,6.7265,0,0,0,0,0,0,0,0,6.6392,6.6423,6.6694,6.6701,6.671,6.6893,6.6842,6.7074,6.6948,6.6857,6.6938,6.6933,6.7098,6.7119,6.7175,6.7392,6.7403,6.726,6.7268,6.7274,6.7278,0,0,0,0,0,0,0,6.6377,6.6412,6.6756,6.6698,6.6707,6.6712,6.674,6.6886,6.6996,6.6865,6.6868,6.6898,6.7101,6.7162,6.7182,6.7407,6.7259,6.7272,6.728,6.7286,6.7769,6.7773,0,0,0,0,0,0,6.6352,6.6398,6.6747,6.6763,6.6538,6.6724,6.6755,6.6838,6.6994,6.7015,6.6901,6.6898,6.714,6.7165,6.7191,6.7392,6.7274,6.7287,6.7295,6.7764,6.777,6.7775,0,0,0,0,0,0,6.6342,6.6383,6.6737,6.6582,6.6627,6.6736,6.6829,6.6845,6.6906,6.7022,6.7041,6.6944,6.7138,6.7171,6.7333,6.7401,6.7293,6.7306,6.7759,6.7766,6.7772,6.7795,0,0,0,0,0,0,6.6328,6.6379,6.6444,6.6583,6.6636,6.6877,6.6833,6.6853,6.6931,6.6929,6.7067,6.7086,6.7138,6.7312,6.7347,6.7418,6.7317,6.7753,6.7762,6.777,6.7789,6.7802,6.7813,0,0,0,0,0,6.6311,6.6439,6.6447,6.6489,6.6719,6.6881,6.691,6.6969,6.6936,6.7001,6.7075,6.7081,6.7388,6.7328,6.7368,6.7444,6.7749,6.776,6.7769,6.7783,6.7799,6.7813,0,0,0,0,0,0,6.6303,6.6458,6.6469,6.6646,6.675,6.6885,6.6969,6.6985,6.7098,6.7092,6.7159,6.7189,6.7348,6.7413,6.7343,6.761,6.7565,6.7584,6.7562,6.7578,6.759,6.757,6.7329,0,0,0,0,0,6.6322,6.6443,6.6571,6.6715,6.6767,6.6859,6.6931,6.6968,6.7077,6.7121,6.7207,6.7311,6.7431,6.7508,6.7625,6.7799,6.7828,6.7871,6.7883,6.7892,6.7907,6.8002,6.8022,6.7808,6.7808,6.7808,0,0,6.6362,6.6462,6.6534,6.6716,6.6801,6.6921,6.6896,6.7025,6.7114,6.714,6.7298,6.7365,6.7485,6.7653,6.7731,6.7712,6.7973,6.7905,6.7912,6.7921,6.8014,6.8034,6.8052,6.7815,6.7813,6.7812,0,0,6.6497,6.6586,6.6715,6.6801,6.6931,6.6991,6.7022,6.7155,6.7201,6.7361,6.7383,6.7489,6.7695,6.7779,6.7849,6.8016,6.8025,6.8052,6.8115,6.8207,6.8223,6.8239,6.8296,6.8317,6.8067,6.8067,6.8067,0,6.653,6.6715,6.6779,6.6908,6.6986,6.7017,6.7147,6.7227,6.7387,6.7439,6.7416,6.7674,6.7758,6.7945,6.7986,6.8042,6.8077,6.8036,6.8216,6.8232,6.8247,6.8303,6.8325,6.8069,6.8069,6.8069,6.8068,0,6.6748,6.6876,6.6965,6.7121,6.7209,6.7338,6.7418,6.75,6.7529,6.7591,6.7753,6.7854,6.7992,6.8039,6.8068,6.8231,6.8214,6.8203,6.8159,6.8269,6.8322,6.8345,6.8072,6.8072,6.8071,6.807,0,0,6.6884,6.7074,6.7105,6.7176,6.7322,6.7421,6.755,6.7686,6.7754,6.7863,6.7972,6.8145,6.8136,6.8215,6.8254,6.8335,6.8458,6.8313,6.8317,6.8335,6.8642,6.8648,6.8672,6.8466,6.847,6.8474,6.8631,0,6.7034,6.7267,6.7328,6.7525,6.7643,6.7675,6.7787,6.7887,6.7948,6.8055,6.8123,6.8244,6.8223,6.8271,6.8353,6.8426,6.852,6.8416,6.8565,6.857,6.8532,6.87,6.8708,6.8851,6.8652,6.8656,6.8659,0,6.724,6.7356,6.7565,6.7695,6.7747,6.7847,6.7976,6.8079,6.8192,6.8231,6.832,6.8352,6.8485,6.8435,6.8619,6.8546,6.8611,6.8656,6.8663,6.8678,6.8619,6.8718,6.8899,6.8919,6.8693,6.869,6.8687,0,6.7316,6.7524,6.7676,6.7736,6.7891,6.796,6.8028,6.8138,6.8216,6.8329,6.8379,6.8505,6.8574,6.8669,6.8733,6.8691,6.8911,6.8866,6.8945,6.8943,6.8988,6.8984,6.918,6.9033,6.9032,6.9032,6.9031,0,6.7476,6.7602,6.7712,6.7805,6.7947,6.8015,6.8153,6.8221,6.8319,6.8424,6.8459,6.8556,6.8635,6.8743,6.8794,6.8937,6.8968,6.9001,6.9013,6.8998,6.8993,6.904,6.903,6.9038,6.9036,6.9035,6.9034,0,6.7583,6.7663,6.783,6.7964,6.8001,6.8099,6.8213,6.8304,6.8367,6.8499,6.8534,6.8633,6.8762,6.8835,6.8997,6.903,6.9189,6.9197,6.9151,6.9156,6.923,6.9221,6.9461,6.9495,6.9326,6.9328,6.9329,0,6.7679,6.7778,6.7923,6.7997,6.8066,6.8185,6.8265,6.8336,6.8417,6.8554,6.8628,6.8759,6.8868,6.9072,6.9156,6.928,6.9289,6.9365,6.9308,6.9289,6.9288,6.9281,6.929,6.9374,6.9375,6.9377,6.9378,0,6.7841,6.7875,6.7991,6.812,6.8215,6.832,6.8424,6.8482,6.8569,6.8658,6.8792,6.8876,6.9042,6.9171,6.9302,6.9369,6.9387,6.9395,6.942,6.9404,6.9373,6.9389,6.9176,6.9389,6.9388,6.9387,6.9386,6.9386,6.7945,6.8033,6.8149,6.8276,6.8362,6.8458,6.855,6.8625,6.8738,6.888,6.8914,6.9054,6.9164,6.9342,6.9412,6.9521,6.9507,6.9543,6.9552,6.9559,6.9561,6.9357,6.9545,6.9545,6.9545,6.9545,6.9545,0,6.8106,6.8183,6.8299,6.8444,6.8544,6.8555,6.867,6.8752,6.8875,6.8977,6.9084,6.9237,6.9362,6.9457,6.9585,6.9654,6.9665,6.9685,6.9679,6.9694,6.9566,6.9532,6.9673,6.9673,6.9673,6.9673,6.9673,6.9673,6.8202,6.8352,6.84,6.8592,6.8667,6.8806,6.8871,6.8959,6.9041,6.921,6.9315,6.9377,6.9476,6.9612,6.9727,6.9751,6.9796,6.9814,6.9839,6.9717,6.9703,6.969,6.9658,6.9824,6.9824,6.9958,6.9959,6.996]}]]